| time (UTC) | temp F | wind direction | speed MPH | gust MPH | rain 1hr in | rain 24hr in | rain mn in | humidity % | barometer mb |
| 20260503203629 | 56 | 99 | 0.0 | 0.0 | 0.00 | 0.00 | 0.00 | 53 | 1013.4 |
| 20260503202631 | 55 | 58 | 0.0 | 0.0 | 0.00 | 0.00 | 0.00 | 52 | 1013.5 |
| 20260503201617 | 54 | 44 | 0.0 | 0.0 | 0.00 | 0.00 | 0.00 | 55 | 1013.7 |
| 20260503200616 | 54 | 57 | 0.0 | 0.0 | 0.00 | 0.00 | 0.00 | 49 | 1013.8 |
| 20260503195616 | 53 | 86 | 0.0 | 0.0 | 0.00 | 0.00 | 0.00 | 59 | 1014.0 |
| 20260503194616 | 53 | 98 | 0.0 | 0.0 | 0.00 | 0.00 | 0.00 | 59 | 1014.0 |
| 20260503193616 | 54 | 28 | 0.0 | 0.0 | 0.00 | 0.00 | 0.00 | 54 | 1014.2 |
| 20260503192639 | 53 | 26 | 0.0 | 1.0 | 0.00 | 0.00 | 0.00 | 55 | 1014.3 |
| 20260503191617 | 53 | 33 | 0.0 | 6.0 | 0.00 | 0.00 | 0.00 | 56 | 1014.3 |
| 20260503190635 | 54 | 20 | 0.0 | 0.0 | 0.00 | 0.00 | 0.00 | 53 | 1014.6 |
| 20260503185620 | 52 | 62 | 0.0 | 0.0 | 0.00 | 0.00 | 0.00 | 53 | 1014.8 |
| 20260503184619 | 50 | 62 | 0.0 | 0.0 | 0.00 | 0.00 | 0.00 | 55 | 1015.0 |
| 20260503183623 | 50 | 86 | 0.0 | 0.0 | 0.00 | 0.00 | 0.00 | 56 | 1014.8 |
| 20260503182623 | 50 | 71 | 0.0 | 0.0 | 0.00 | 0.00 | 0.00 | 57 | 1015.0 |
| 20260503181621 | 50 | 71 | 0.0 | 0.0 | 0.00 | 0.00 | 0.00 | 59 | 1015.2 |
| 20260503180637 | 49 | 57 | 0.0 | 0.0 | 0.00 | 0.00 | 0.00 | 64 | 1015.2 |
| 20260503175616 | 49 | 65 | 0.0 | 0.0 | 0.00 | 0.00 | 0.00 | 64 | 1015.4 |
| 20260503174617 | 50 | 61 | 0.0 | 0.0 | 0.00 | 0.00 | 0.00 | 64 | 1015.6 |
| 20260503173635 | 49 | 59 | 0.0 | 0.0 | 0.00 | 0.00 | 0.00 | 62 | 1015.7 |
| 20260503172634 | 48 | 59 | 0.0 | 0.0 | 0.00 | 0.00 | 0.00 | 64 | 1015.9 |
| 20260503171634 | 48 | 85 | 0.0 | 0.0 | 0.00 | 0.00 | 0.00 | 64 | 1016.1 |
| 20260503170630 | 48 | 63 | 0.0 | 0.0 | 0.00 | 0.00 | 0.00 | 62 | 1016.2 |
| 20260503150630 | 46 | 132 | 0.0 | 0.0 | 0.00 | 0.00 | 0.00 | 65 | 1017.3 |
| 20260503130633 | 38 | 244 | 0.0 | 0.0 | 0.00 | 0.00 | 0.00 | 70 | 1017.1 |
| 20260503110645 | 36 | 263 | 0.0 | 0.0 | 0.00 | 0.00 | 0.00 | 63 | 1017.1 |
| 20260503081630 | 43 | 200 | 0.0 | 0.0 | 0.00 | 0.00 | 0.00 | 41 | 1017.0 |
| 20260503080622 | 44 | 200 | 0.0 | 0.0 | 0.00 | 0.00 | 0.00 | 46 | 1017.0 |
| 20260503072619 | 43 | 198 | 0.0 | 0.0 | 0.00 | 0.00 | 0.00 | 46 | 1017.1 |
| 20260503071635 | 44 | 200 | 0.0 | 0.0 | 0.00 | 0.00 | 0.00 | 49 | 1017.1 |
| 20260503070634 | 44 | 199 | 0.0 | 0.0 | 0.00 | 0.00 | 0.00 | 47 | 1017.1 |
| 20260503054633 | 47 | 246 | 0.0 | 0.0 | 0.00 | 0.00 | 0.00 | 39 | 1017.2 |
| 20260503053625 | 47 | 215 | 0.0 | 0.0 | 0.00 | 0.00 | 0.00 | 44 | 1017.2 |
| 20260503052639 | 47 | 223 | 0.0 | 0.0 | 0.00 | 0.00 | 0.00 | 45 | 1017.1 |
| 20260503051648 | 48 | 302 | 0.0 | 0.0 | 0.00 | 0.00 | 0.00 | 36 | 1017.1 |
| 20260503050620 | 48 | 306 | 0.0 | 0.0 | 0.00 | 0.00 | 0.00 | 35 | 1017.2 |
| 20260503045619 | 49 | 239 | 0.0 | 0.0 | 0.00 | 0.00 | 0.00 | 36 | 1017.3 |
| 20260503044634 | 50 | 239 | 0.0 | 0.0 | 0.00 | 0.00 | 0.00 | 34 | 1017.2 |
| 20260503043625 | 51 | 239 | 0.0 | 0.0 | 0.00 | 0.00 | 0.00 | 35 | 1017.3 |
| 20260503042617 | 50 | 259 | 0.0 | 0.0 | 0.00 | 0.00 | 0.00 | 35 | 1017.3 |
| 20260503041634 | 49 | 305 | 0.0 | 0.0 | 0.00 | 0.00 | 0.00 | 38 | 1017.3 |
| 20260503040632 | 50 | 284 | 0.0 | 0.0 | 0.00 | 0.00 | 0.00 | 37 | 1017.2 |
| 20260503035627 | 51 | 180 | 0.0 | 0.0 | 0.00 | 0.00 | 0.00 | 49 | 1017.2 |
| 20260503034620 | 51 | 178 | 0.0 | 0.0 | 0.00 | 0.00 | 0.00 | 53 | 1017.2 |
| 20260503033632 | 52 | 231 | 0.0 | 0.0 | 0.00 | 0.00 | 0.00 | 40 | 1017.1 |
| 20260503032647 | 53 | 231 | 0.0 | 0.0 | 0.00 | 0.00 | 0.00 | 39 | 1016.9 |
| 20260503031639 | 54 | 236 | 0.0 | 0.0 | 0.00 | 0.00 | 0.00 | 32 | 1016.8 |
| 20260503030617 | 54 | 216 | 0.0 | 0.0 | 0.00 | 0.00 | 0.00 | 35 | 1016.8 |
| 20260503025635 | 56 | 190 | 0.0 | 0.0 | 0.00 | 0.00 | 0.00 | 34 | 1016.7 |
| 20260503024624 | 57 | 159 | 0.0 | 0.0 | 0.00 | 0.00 | 0.00 | 27 | 1016.6 |
| 20260503023617 | 57 | 138 | 0.0 | 0.0 | 0.00 | 0.00 | 0.00 | 28 | 1016.6 |
| 20260503022630 | 59 | 148 | 0.0 | 0.0 | 0.00 | 0.00 | 0.00 | 30 | 1016.6 |
| 20260503021630 | 59 | 67 | 0.0 | 0.0 | 0.00 | 0.00 | 0.00 | 28 | 1016.6 |
| 20260503020625 | 59 | 312 | 0.0 | 0.0 | 0.00 | 0.00 | 0.00 | 32 | 1016.7 |
| 20260503015617 | 60 | 224 | 0.0 | 1.0 | 0.00 | 0.00 | 0.00 | 29 | 1016.7 |
| 20260503014630 | 60 | 246 | 0.0 | 0.0 | 0.00 | 0.00 | 0.00 | 27 | 1016.7 |
| 20260503013624 | 60 | 259 | 0.0 | 1.0 | 0.00 | 0.00 | 0.00 | 27 | 1016.7 |
| 20260503012619 | 61 | 286 | 0.0 | 1.0 | 0.00 | 0.00 | 0.00 | 26 | 1016.7 |
| 20260503011633 | 61 | 244 | 0.0 | 1.0 | 0.00 | 0.00 | 0.00 | 25 | 1016.6 |
| 20260503010626 | 62 | 250 | 0.0 | 3.0 | 0.00 | 0.00 | 0.00 | 27 | 1016.6 |
| 20260503005622 | 62 | 234 | 0.0 | 4.0 | 0.00 | 0.00 | 0.00 | 25 | 1016.5 |
| 20260503004655 | 62 | 232 | 1.0 | 7.0 | 0.00 | 0.00 | 0.00 | 24 | 1016.6 |
| 20260503003629 | 63 | 242 | 0.0 | 8.0 | 0.00 | 0.00 | 0.00 | 22 | 1016.5 |
| 20260503002625 | 63 | 250 | 0.0 | 5.0 | 0.00 | 0.00 | 0.00 | 22 | 1016.6 |
| 20260503001657 | 64 | 265 | 0.0 | 2.0 | 0.00 | 0.00 | 0.00 | 19 | 1016.5 |
| 20260503000624 | 64 | 249 | 0.0 | 7.0 | 0.00 | 0.00 | 0.00 | 23 | 1016.5 |
| 20260502235618 | 64 | 277 | 1.0 | 8.0 | 0.00 | 0.00 | 0.00 | 23 | 1016.6 |
| 20260502234649 | 64 | 271 | 0.0 | 7.0 | 0.00 | 0.00 | 0.00 | 23 | 1016.6 |
| 20260502233623 | 64 | 247 | 4.0 | 12.0 | 0.00 | 0.00 | 0.00 | 23 | 1016.7 |
| 20260502232620 | 64 | 267 | 0.0 | 11.0 | 0.00 | 0.00 | 0.00 | 23 | 1016.8 |
| 20260502231633 | 64 | 240 | 2.0 | 14.0 | 0.00 | 0.00 | 0.00 | 24 | 1016.8 |
| 20260502230628 | 64 | 260 | 2.0 | 9.0 | 0.00 | 0.00 | 0.00 | 28 | 1017.0 |
| 20260502225624 | 62 | 36 | 0.0 | 0.0 | 0.00 | 0.00 | 0.00 | 30 | 1017.1 |
| 20260502224656 | 62 | 40 | 0.0 | 0.0 | 0.00 | 0.00 | 0.00 | 36 | 1017.1 |
| 20260502223630 | 61 | 42 | 0.0 | 0.0 | 0.00 | 0.00 | 0.00 | 39 | 1017.2 |
| 20260502222626 | 60 | 42 | 0.0 | 0.0 | 0.00 | 0.00 | 0.00 | 45 | 1017.3 |
| 20260502221621 | 60 | 42 | 0.0 | 0.0 | 0.00 | 0.00 | 0.00 | 45 | 1017.3 |
| 20260502220617 | 58 | 55 | 0.0 | 0.0 | 0.00 | 0.00 | 0.00 | 51 | 1017.5 |
| 20260502215631 | 57 | 65 | 0.0 | 0.0 | 0.00 | 0.00 | 0.00 | 51 | 1017.7 |
| 20260502214626 | 58 | 53 | 0.0 | 0.0 | 0.00 | 0.00 | 0.00 | 45 | 1017.7 |
| 20260502213620 | 60 | 45 | 0.0 | 0.0 | 0.00 | 0.00 | 0.00 | 54 | 1017.9 |
| 20260502212617 | 60 | 35 | 0.0 | 0.0 | 0.00 | 0.00 | 0.00 | 40 | 1018.0 |
| 20260502211627 | 60 | 13 | 0.0 | 0.0 | 0.00 | 0.00 | 0.00 | 38 | 1018.1 |
| 20260502210619 | 60 | 15 | 0.0 | 1.0 | 0.00 | 0.00 | 0.00 | 38 | 1018.2 |
| 20260502205653 | 59 | 5 | 0.0 | 4.0 | 0.00 | 0.00 | 0.00 | 43 | 1018.4 |
| 20260502204623 | 57 | 17 | 1.0 | 6.0 | 0.00 | 0.00 | 0.00 | 42 | 1018.4 |